Flag for Switzerland Weather past 2 weeks in Ostermundigen, Bern, Switzerland

Now
64 °F

Passing clouds.


Feels Like: 64 °F
Forecast: 44 / 68 °F
Wind: 2 mph from North

Location: Bern / Belp

Current Time: Aug 22, 2014 at 12:06:37 PM

Latest Report: Aug 22, 2014 at 11:20 AM


Visibility: N/A

Pressure: 30.04 "Hg

Humidity: 56%

Dew point: 48 °F

Location of OstermundigenLocation

Historic Weather in Ostermundigen — Graph

°F

Ostermundigen temperature yesterday

Maximum temperature yesterday: 70 °F (at 4:20 PM)
Minimum temperature yesterday: 46 °F (at 4:20 AM)
Average temperature yesterday: 58 °F

Past Weeks' High & Low Weather Summary

 TemperatureHumidityPressure
High82 °F (Aug 9, 4:50 PM)100% (Aug 8, 2:20 AM)30.21 "Hg (Aug 8, 2:20 AM)
Low45 °F (Aug 17, 5:20 AM)31% (Aug 18, 5:50 PM)29.68 "Hg (Aug 13, 8:50 AM)
Average62 °F79%30.00 "Hg
* Reported Aug 7 10:20 AM — Aug 22 10:50 AM, Ostermundigen, Weather by CustomWeather, © 2014

Note: Actual official high and low records may vary slightly from our data, if they occured in-between our weather recording intervals... More about our weather records

Advertising

Ostermundigen weather history for previous 24 hours

 ConditionsComfort  
Time TempWeatherWind HumidityBarometerVisibility
10:50 AM
Aug 22
63 °FScattered clouds.2 mph64%30.04 "HgN/A
10:20 AM63 °FPassing clouds.3 mph64%30.04 "HgN/A
9:50 AM59 °FScattered clouds.6 mph72%30.04 "HgN/A
9:20 AM57 °FScattered clouds.6 mph77%30.04 "HgN/A
8:50 AM55 °FSunny.6 mph82%30.04 "Hg10 mi
8:20 AM52 °FSunny.6 mph94%30.04 "Hg10 mi
7:50 AM50 °FSunny.1 mph94%30.04 "Hg10 mi
7:20 AM46 °FPassing clouds.3 mph100%30.04 "HgN/A
6:50 AM46 °FPassing clouds.3 mph93%30.04 "HgN/A
6:20 AM46 °FPassing clouds.3 mph100%30.04 "HgN/A
5:50 AM46 °FPassing clouds.6 mph100%30.04 "HgN/A
5:20 AM46 °FPassing clouds.5 mph100%30.04 "HgN/A
4:20 AM46 °FPassing clouds.5 mph100%30.04 "HgN/A
3:50 AM46 °FPassing clouds.1 mph100%30.04 "HgN/A
3:20 AM46 °FCool.2 mph100%30.04 "HgN/A
2:50 AM46 °FPassing clouds.2 mph100%30.04 "HgN/A
2:20 AM48 °FPassing clouds.1 mph94%30.04 "HgN/A
1:50 AM48 °FCool.3 mph100%30.04 "HgN/A
1:20 AM48 °FPassing clouds.1 mph100%30.04 "HgN/A
12:50 AM50 °FPassing clouds.1 mph94%30.04 "HgN/A
12:20 AM50 °FClear.1 mph94%30.04 "Hg10 mi
11:50 PM
Aug 21
52 °FClear.1 mph94%30.04 "Hg10 mi
11:20 PM52 °FCool.2 mph94%30.04 "HgN/A
10:50 PM55 °FPassing clouds.2 mph77%30.04 "HgN/A
10:20 PM59 °FPassing clouds.1 mph68%30.04 "HgN/A
9:50 PM57 °FPassing clouds.2 mph77%30.04 "HgN/A
9:20 PM59 °FScattered clouds.No wind72%30.04 "HgN/A
8:50 PM61 °FPartly sunny.No wind59%30.01 "HgN/A
8:20 PM61 °FPartly sunny.5 mph68%30.01 "HgN/A
7:50 PM63 °FScattered clouds.5 mph64%30.01 "HgN/A
7:20 PM66 °FScattered clouds.5 mph52%30.01 "HgN/A
6:50 PM70 °FScattered clouds.6 mph43%30.01 "HgN/A
6:20 PM70 °FScattered clouds.2 mph46%30.01 "HgN/A
5:50 PM68 °FScattered clouds.2 mph40%30.01 "HgN/A
5:20 PM68 °FPartly sunny.5 mph40%30.01 "HgN/A
4:50 PM70 °FScattered clouds.6 mph35%30.01 "HgN/A
4:20 PM70 °FScattered clouds.7 mph40%30.01 "HgN/A
3:50 PM68 °FScattered clouds.6 mph43%30.04 "HgN/A
3:20 PM68 °FScattered clouds.5 mph43%30.04 "HgN/A
2:50 PM64 °FScattered clouds.5 mph49%30.04 "HgN/A
2:20 PM66 °FScattered clouds.8 mph52%30.04 "HgN/A
1:50 PM64 °FScattered clouds.6 mph49%30.04 "HgN/A
1:20 PM64 °FScattered clouds.6 mph56%30.07 "HgN/A
12:50 PM64 °FScattered clouds.3 mph60%30.07 "HgN/A
12:20 PM64 °FScattered clouds.3 mph60%30.07 "HgN/A
Weather by CustomWeather, © 2014

See weather overviewHow to use our weather pages